Regional Weather Roundup
Issued by NWS Albany, NY

Home | Current Version | Previous Version | Text Only | Print | Product List | Glossary On
Versions: 1 2 3 4 5 6 7 8 9 10 11 12 13 14 15 16 17 18 19 20 21 22 23 24 25 26 27 28 29 30 31 32 33 34 35 36 37 38 39 40 41 42 43 44 45 46 47 48 49 50
000
ASUS41 KALY 011310
RWRALY

NEW YORK STATE HOURLY WEATHER ROUNDUP
NATIONAL WEATHER SERVICE ALBANY NY
900 AM EDT WED APR 01 2015

NOTE: "FAIR" INDICATES FEW OR NO CLOUDS BELOW 12,000 FEET WITH NO
SIGNIFICANT WEATHER AND/OR NO OBSTRUCTIONS TO VISIBILITY.

NYZ032-033-038>043-046>054-057>066-NYZ062>081-011400-
EAST


CITY           SKY/WX    TMP DP  RH WIND       PRES   REMARKS
ALBANY         MOSUNNY   33  12  41 N3        30.04R
GLENS FALLS    SUNNY     30  11  45 NE8       30.04R WCI  22
POUGHKEEPSIE   MOSUNNY   33  22  63 CALM      30.04R
NEWBURGH       MOSUNNY   30  25  80 CALM      30.03R
MONTGOMERY     MOSUNNY   31  25  78 S3        30.02R
WHITE PLAINS   PTSUNNY   34  13  41 N9        30.01R WCI  27
ISLIP          PTSUNNY   36  15  42 N10       30.00R WCI  28
NEW YORK CITY  PTSUNNY   37  19  48 NW7       30.04R WCI  32
CENTRAL PARK   PTSUNNY   35  19  52 VRB3      30.07R
$$

NYZ005>009-017-018-044>046-055-056-011400-
CENTRAL


CITY           SKY/WX    TMP DP  RH WIND       PRES   REMARKS
FULTON         SUNNY     29  10  45 NE8       30.09R WCI  21
SYRACUSE       MOSUNNY   31  16  54 NW5       30.08R WCI  26
ROME           SUNNY     24  19  81 CALM      30.07S
ELMIRA         MOSUNNY   30  27  88 SW3       30.06R
BINGHAMTON     PTSUNNY   27  22  81 NW8       30.00R WCI  19
MONTICELLO     MOSUNNY   27  19  74 W3        30.00R
$$

NYZ026>034-041>043-011400-
NORTH


CITY           SKY/WX    TMP DP  RH WIND       PRES   REMARKS
WATERTOWN      SUNNY     29  13  51 N7        30.10R WCI  22
FORT DRUM      NOT AVBL
MASSENA        SUNNY     27   4  37 N6        30.12R WCI  20
SARANAC LAKE   SUNNY     19   6  57 NE3       29.96R
PLATTSBURGH    SUNNY     27   6  41 N14       30.08R WCI  16
$$

NYZ001>004-010>016-019>021-011400-
WEST


CITY           SKY/WX    TMP DP  RH WIND       PRES   REMARKS
NIAGARA FALLS  MOSUNNY   32  20  61 N5        30.12R WCI  27
BUFFALO        MOSUNNY   31  23  72 CALM      30.12R
DUNKIRK        CLOUDY    31  25  78 CALM      30.12R
JAMESTOWN      CLOUDY    27  23  86 CALM      30.06R
WELLSVILLE     SUNNY     28  20  71 N8        30.03R WCI  20
ROCHESTER      MOSUNNY   33  18  53 NE7       30.11R WCI  27
PENN YAN       MOSUNNY   32  24  72 NW8       30.07R WCI  25
$$

             KEY
       WCI = WIND CHILL INDEX
       VSB = VISIBILITY
       HX  = HEAT INDEX
$$



USA.gov is the U.S. government's official web portal to all federal, state and local government web resources and services.